Hourly Data Report for October 07, 2003

SHERBROOKE A
QUEBEC

45°26'00.000" N
71°41'00.000" W
241.40 m
7028124
71610
YSC

Download Data

Hourly Data (October 2003)
Hourly Data Report for October 7, 2003
TIME
LST
Temp Definition
°C
Dew Point Definition
°C
Rel Hum Definition
%
Precip. Amount Definition
mm

Wind Dir Definition
10's deg

Wind Spd Definition
km/h
Visibility Definition
km
Stn Press Definition
kPa
Hmdx Definition


Wind Chill Definition


Weather Definition


00:00 1.6 -0.1 88   21 7 15.0 99.07      
01:00 0.6 -1.0 89   23 6 15.0 99.11      
02:00 0.0 -1.4 90     0 15.0 99.11      
03:00 0.2 -0.8 93     0 8.0 99.11      
04:00 0.4 -0.5 94     0 8.0 99.12      
05:00 0.4 -0.4 94     0 8.0 99.14      
06:00 -1.4 -2.6 92     0 8.0 99.15      
07:00 0.8 -0.1 94     0 24.1 99.17     Mainly Clear
08:00 4.0 1.4 83   23 6 24.1 99.19     Mainly Clear
09:00 6.9 2.0 71   23 11 24.1 99.19     Mainly Clear
10:00 8.6 2.7 66   25 9 24.1 99.16     Mainly Clear
11:00 10.4 3.0 60   23 11 24.1 99.10     Mostly Cloudy
12:00 9.4 1.0 56   27 17 24.1 99.04     Mainly Clear
13:00 10.8 1.7 53   29 20 24.1 98.96     Mainly Clear
14:00 10.9 1.3 51   27 15 24.1 98.91     Mostly Cloudy
15:00 12.0 2.0 50   23 17 24.1 98.86     Mostly Cloudy
16:00 10.9 2.5 56   23 13 24.1 98.83     Mostly Cloudy
17:00 9.3 2.6 63   19 9 15.0 98.79      
18:00 8.6 2.9 67   19 6 15.0 98.77      
19:00 8.7 3.1 68   22 4 15.0 98.80      
20:00 9.0 3.4 68   23 6 15.0 98.88      
21:00 9.1 3.3 67   22 7 15.0 98.93      
22:00 9.1 3.2 67   22 7 15.0 98.96      
23:00 9.3 3.5 67   22 6 15.0 98.98      

Notes on Data Quality.

Legend

  • E = Estimated
  • M = Missing
  • NA = Not Available*
  • [empty] = Indicates an unobserved value
Date modified: